Hourly Weather Roundup
Issued by NWS Central Illinois

Home | Current Version | Previous Version | Text Only | Print | Product List | Glossary On
Versions: 1 2 3 4 5 6 7 8 9 10 11 12 13 14 15 16 17 18 19 20 21 22 23 24 25 26 27 28 29 30 31 32 33 34 35 36 37 38 39 40 41 42 43 44 45 46 47 48 49 50
000
NZUS43 KILX 281510
HWRILX

AREA WEATHER ROUNDUP
NATIONAL WEATHER SERVICE, LINCOLN IL
1000 AM CDT MON JUL 28 2014


CITY           SKY/WX    TMP DP  RH WIND       PRES   REMARKS
BLOOMINGTON    SUNNY     65  53  65 N15       30.09R
CHAMPAIGN      SUNNY     66  57  72 N15       30.06R
DECATUR        SUNNY     69  56  62 N13       30.08R
FLORA          SUNNY     71  60  69 NW9       30.06R
GALESBURG      SUNNY     67  54  62 N15G23    30.14S
JACKSONVILLE   PTSUNNY   70  61  71 N12       30.13R
LACON          MOSUNNY   64  51  60 N10G17    30.09S
LAWRENCEVILLE  SUNNY     71  58  63 N13       30.04R
LITCHFIELD     MOSUNNY   69  60  73 N9        30.10S
$$


CITY           SKY/WX    TMP DP  RH WIND       PRES   REMARKS
LINCOLN        SUNNY     70  55  59 N8        30.08R
MACOMB         MOSUNNY   66  55  67 N10       30.16S
MATTOON        SUNNY     68  57  68 N12       30.06R
MT CARMEL AP   SUNNY     72  61  68 NW10      30.04R
OLNEY-NOBLE AP CLOUDY    70  61  73 NW8       30.06R
PARIS          SUNNY     68  58  69 N8        30.05R
PEORIA         SUNNY     68  52  56 N9        30.11R
PONTIAC        SUNNY     66  55  68 NW14      30.07S
RANTOUL        SUNNY     68  54  61 N10       30.07R
ROBINSON       MOSUNNY   72  61  68 N9        30.05R
SPRINGFIELD    PTSUNNY   71  59  65 N9G17     30.10R
TAYLORVILLE    MOSUNNY   66  57  72 N10       30.09S
$$

...REGIONAL REPORTS...


CITY           SKY/WX    TMP DP  RH WIND       PRES   REMARKS
CHICAGO O`HARE MOSUNNY   64  45  49 N18       30.06R
KANKAKEE       SUNNY     66  55  67 NW9       30.06R
MOLINE         SUNNY     67  50  54 VRB7G18   30.14R
MOUNT VERNON   MOSUNNY   72  61  68 NW5       30.08R
PITTSFIELD     PTSUNNY   69  60  70 N8        30.14R
QUINCY         CLOUDY    66  59  78 NE7       30.15R
ROCKFORD       MOSUNNY   65  47  52 N17G25    30.13R
$$


CITY           SKY/WX    TMP DP  RH WIND       PRES   REMARKS
BURLINGTON     SUNNY     68  55  63 N12       30.15R
CEDAR RAPIDS   SUNNY     68  51  54 N14       30.16S
DES MOINES     MOSUNNY   71  54  54 NE8       30.21R
KIRKSVILLE     CLOUDY    67  60  78 N9        30.20R
OTTUMWA        SUNNY     67  55  65 N10       30.18R
ST LOUIS       PTSUNNY   73  62  68 N7        30.11S
$$


CITY           SKY/WX    TMP DP  RH WIND       PRES   REMARKS
TERRE HAUTE    SUNNY     69  57  65 N10       30.03R
EVANSVILLE     PTSUNNY   71  59  65 NW10      30.03R
INDIANAPOLIS   CLOUDY    63  56  78 NW12      30.00R
LAFAYETTE      MOSUNNY   67  55  65 N16       30.02R
MADISON        MOSUNNY   65  50  58 N14       30.14R
MILWAUKEE      MOSUNNY   61  46  57 N14       30.09R
$$




USA.gov is the U.S. government's official web portal to all federal, state and local government web resources and services.